Location: Nitra
(0.0000°N, 18.0833°E)
Time: 17:14:07
(UTC+02:00)

A-11 Canister half - All Passes

Search period start: 31 March 2023 00:00
Search period end: 10 April 2023 00:00
Orbit: 1526 x 1682 km, 47.3° (Epoch: 31 March)

Date Brightness Start Highest point End Pass type
(mag) Time Alt. Az. Time Alt. Az. Time Alt. Az.
31 Mar - 01:24:28 10° WNW 01:33:06 42° SW 01:41:43 10° SSE night (unlit)
31 Mar - 10:08:24 10° S 10:14:18 17° SE 10:20:15 10° E daylight
31 Mar - 12:09:32 10° SW 12:19:36 86° SE 12:29:46 10° NE daylight
31 Mar - 14:18:04 10° W 14:24:52 20° NW 14:31:42 10° N daylight
31 Mar - 22:58:05 10° NNW 23:06:38 37° NE 23:14:59 10° ESE visible
01 Apr - 01:02:37 10° WNW 01:11:24 45° SW 01:20:09 10° SSE night (unlit)
01 Apr - 09:47:09 10° SSE 09:52:31 16° SE 09:57:54 10° E daylight
01 Apr - 11:47:50 10° SW 11:57:52 81° SE 12:08:01 10° NE daylight
01 Apr - 13:55:55 10° W 14:03:05 22° NW 14:10:18 10° N daylight
01 Apr - 22:36:32 10° NNW 22:44:55 35° NE 22:53:07 10° ESE visible
02 Apr - 00:40:47 10° WNW 00:49:42 49° SW 00:58:34 10° SSE night (unlit)
02 Apr - 09:26:01 10° SSE 09:30:44 14° SE 09:35:28 10° ESE daylight
02 Apr - 11:26:10 10° SW 11:36:08 76° SE 11:46:15 10° NE daylight
02 Apr - 13:33:49 10° W 13:41:18 23° NW 13:48:52 10° N daylight
02 Apr - 22:15:00 10° NNW 22:23:12 32° NE 22:31:13 10° ESE visible
03 Apr - 00:18:57 10° NW 00:28:01 52° SW 00:36:59 10° SSE night (unlit)
03 Apr - 09:05:02 10° SSE 09:08:56 13° SE 09:12:51 10° ESE daylight
03 Apr - 11:04:30 10° SSW 11:14:24 71° SE 11:24:29 10° NE daylight
03 Apr - 13:11:45 10° W 13:19:31 25° NW 13:27:24 10° N daylight
03 Apr - 21:53:29 10° N 22:01:29 30° NE 22:09:18 10° ESE visible
03 Apr - 23:57:09 10° NW 00:06:19 56° SW 00:15:23 10° SSE night (unlit)
04 Apr - 08:44:16 10° SSE 08:47:08 11° SE 08:50:00 10° ESE daylight
04 Apr - 10:42:51 10° SSW 10:52:40 67° SE 11:02:41 10° NE daylight
04 Apr - 12:49:44 10° WSW 12:57:46 27° NW 13:05:55 10° N daylight
04 Apr - 21:31:58 10° N 21:39:45 28° NE 21:47:21 10° ESE visible
04 Apr - 23:35:21 10° NW 23:44:38 61° SW 23:53:47 10° SSE visible
05 Apr - 08:24:28 10° SE 08:25:19 10° SE 08:26:11 10° SE daylight
05 Apr - 10:21:13 10° SSW 10:30:57 62° SE 10:40:53 10° NE daylight
05 Apr - 12:27:44 10° WSW 12:36:00 29° NW 12:44:24 10° N daylight
05 Apr - 21:10:28 10° N 21:18:01 26° NE 21:25:23 10° E visible
05 Apr - 23:13:34 10° NW 23:22:57 65° SW 23:32:10 10° SSE visible
06 Apr - 01:27:30 10° SW 01:28:22 10° SW 01:29:14 10° SW night (unlit)
06 Apr - 09:59:35 10° SSW 10:09:13 58° SE 10:19:04 10° NE daylight
06 Apr - 12:05:46 10° WSW 12:14:15 32° NW 12:22:53 10° N daylight
06 Apr - 20:49:00 10° N 20:56:16 24° NE 21:03:22 10° E visible
06 Apr - 22:51:48 10° NW 23:01:16 70° SW 23:10:32 10° SSE visible
07 Apr - 01:03:52 10° WSW 01:06:35 11° SW 01:09:18 10° SSW night (unlit)
07 Apr - 09:37:58 10° SSW 09:47:30 54° SE 09:57:14 10° NE daylight
07 Apr - 11:43:49 10° WSW 11:52:29 34° NW 12:01:20 10° NNE daylight
07 Apr - 20:27:33 10° N 20:34:32 22° NE 20:41:20 10° E visible
07 Apr - 22:30:03 10° NW 22:39:34 75° SW 22:48:53 10° SE visible
08 Apr - 00:41:07 10° WSW 00:44:49 13° SW 00:48:31 10° SSW night (unlit)
08 Apr - 09:16:23 10° SSW 09:25:46 50° SE 09:35:22 10° ENE daylight
08 Apr - 11:21:53 10° WSW 11:30:44 37° NW 11:39:46 10° NNE daylight
08 Apr - 20:06:08 10° N 20:12:47 20° NE 20:19:16 10° E visible
08 Apr - 22:08:17 10° NW 22:17:53 80° SW 22:27:15 10° SE visible
09 Apr - 00:18:35 10° WSW 00:23:03 14° SW 00:27:30 10° SSW night (unlit)
09 Apr - 08:54:48 10° SSW 09:04:03 47° SE 09:13:30 10° ENE daylight
09 Apr - 11:00:01 10° WSW 11:08:59 39° NW 11:18:11 10° NNE daylight
09 Apr - 19:44:45 10° N 19:51:01 19° NE 19:57:09 10° E visible
09 Apr - 21:46:33 10° NW 21:56:11 85° SW 22:05:35 10° SE visible
